Location: Bovenkerk
(52.2915°N, 4.8336°E)
Time: 18:09:25
(UTC+00:00)

STARLINK-1240 - Pass Details

Date: 09 April 2020
Orbit: 549 x 551 km, 53.0° (Epoch: 26 May)

Event Time Altitude Azimuth Distance (km) Brightness Sun altitude
Rises 20:08:31 0° 287° (WNW) 2,731 8.7 -14.6°
Reaches altitude 10° 20:10:48 10° 282° (WNW) 1,835 7.4 -14.8°
Maximum altitude 20:14:49 48° 208° (SSW) 733 4.1 -15.3°
Enters shadow 20:16:41 27° 149° (SSE) 1,072 4.6 -15.6°
